Hourly Data Report for February 25, 2019

TORONTO CITY
ONTARIO
Current Station Operator: ECCC - MSC

43°40'00.000" N
79°24'00.000" W
112.50 m
6158355
71508
XTO

Download Data

Hourly Data (February 2019)
Hourly Data Report for February 25, 2019
TIME
LST
Temp Definition
°C
Dew Point Definition
°C
Rel Hum Definition
%
Precip. Amount Definition
mm

Wind Dir Definition
10's deg

Wind Spd Definition
km/h
Visibility Definition
km
Stn Press Definition
kPa
Hmdx Definition


Wind Chill Definition


Weather Definition


00:00 -1.8 -6.6 70 0.0       98.19     LegendNANA
01:00 -1.9 -7.1 67 0.0       98.28     LegendNANA
02:00 -2.0 -7.9 64 0.0       98.43     LegendNANA
03:00 -2.8 -7.6 69 0.0       98.55     LegendNANA
04:00 -3.4 -6.6 79 0.0       98.73     LegendNANA
05:00 -3.6 -9.2 65 0.2       98.92     LegendNANA
06:00 -4.2 -9.5 67 0.0       99.10     LegendNANA
07:00 -4.5 -10.3 64 0.0       99.31     LegendNANA
08:00 -4.7 -10.8 62 0.0       99.51     LegendNANA
09:00 -4.1 -10.7 60 0.0       99.70     LegendNANA
10:00 -3.5 -10.6 58 0.0       99.90     LegendNANA
11:00 -4.0 -10.0 63 0.0       100.07     LegendNANA
12:00 -3.5 -9.2 65 0.0       100.27     LegendNANA
13:00 -5.2 -7.2 86 0.0       100.37     LegendNANA
14:00 -3.6 -12.6 50 0.2       100.50     LegendNANA
15:00 -3.6 -12.2 52 0.0       100.61     LegendNANA
16:00 -4.0 -12.9 50 0.0       100.74     LegendNANA
17:00 -4.8 -12.9 53 0.0       100.93     LegendNANA
18:00 -5.3 -11.7 61 0.0       101.01     LegendNANA
19:00 -5.9 -10.8 68 0.0       101.10     LegendNANA
20:00 -6.1 -11.2 67 0.0       101.20     LegendNANA
21:00 -6.3 -11.8 65 0.0       101.21     LegendNANA
22:00 -6.6 -11.8 66 0.0       101.26     LegendNANA
23:00 -6.6 -11.7 67 0.0       101.26     LegendNANA

Notes on Data Quality.

Legend

  • E = Estimated
  • M = Missing
  • NA = Not Available*
  • [empty] = Indicates an unobserved value
Date modified: